This demonstration page uses our WeatherBlox Daily Observations layout. Learn more.

Left ArrowRight Arrow

36.19886, -115.1175

Hourly Observations for January 29, 2022

Temp ( °F °C ) Dew Point ( °F °C ) Humidity (%) Winds ( mph kmh ) Pressure ( in mb ) Visibility ( mi km ) Precip ( " mm )
12:53 am 00:53 Clear 41 5 6 -14.4 23 23 W 5 7 30.36 1028 10 16 0.00 0.00
1:53 am 01:53 Clear 38 3.3 8 -13.3 29 29 WNW 5 7 30.36 1028 10 16 0.00 0.00
2:53 am 02:53 Clear 39 3.9 7 -13.9 26 26 WNW 5 7 30.35 1028 10 16 0.00 0.00
3:53 am 03:53 Clear 39 3.9 8 -13.3 28 28 WNW 7 11 30.34 1027 10 16 0.00 0.00
4:53 am 04:53 Clear 38 3.3 5 -15 25 25 NW 7 11 30.34 1028 10 16 0.00 0.00
5:53 am 05:53 Clear 37 2.8 6 -14.4 27 27 NW 6 9 30.35 1028 10 16 0.00 0.00
6:53 am 06:53 Sunny 37 2.8 5 -15 26 26 NW 7 11 30.37 1029 10 16 0.00 0.00
7:53 am 07:53 Sunny 41 5 6 -14.4 23 23 WNW 7 11 30.37 1028 10 16 0.00 0.00
8:53 am 08:53 Sunny 50 10 5 -15 16 16 NNW 5 7 30.36 1028 10 16 0.00 0.00
9:53 am 09:53 Sunny 55 12.8 5 -15 13 13 NW 7 11 30.34 1027 10 16 0.00 0.00
10:53 am 10:53 Sunny 56 13.3 5 -15 13 13 Calm 30.32 1027 10 16 0.00 0.00
11:53 am 11:53 Sunny 57 13.9 4 -15.6 11 11 SE 3 6 30.29 1026 10 16 0.00 0.00
12:53 pm 12:53 Sunny 60 15.6 3 -16.1 10 10 Calm 30.24 1024 10 16 0.00 0.00
1:53 pm 13:53 Sunny 61 16.1 4 -15.6 10 10 VRB 3 6 30.20 1023 10 16 0.00 0.00
2:53 pm 14:53 Sunny 61 16.1 4 -15.6 10 10 SSW 3 6 30.17 1022 10 16 0.00 0.00
3:53 pm 15:53 Sunny 61 16.1 3 -16.1 10 10 Calm 30.16 1021 10 16 0.00 0.00
4:53 pm 16:53 Sunny 60 15.6 4 -15.6 10 10 W 3 6 30.16 1021 10 16 0.00 0.00
5:53 pm 17:53 Clear 58 14.4 6 -14.4 12 12 WSW 6 9 30.16 1021 10 16 0.00 0.00
6:53 pm 18:53 Clear 56 13.3 6 -14.4 13 13 Calm 30.16 1021 10 16 0.00 0.00
7:53 pm 19:53 Clear 53 11.7 9 -12.8 17 17 WSW 5 7 30.16 1021 10 16 0.00 0.00
8:53 pm 20:53 Clear 51 10.6 9 -12.8 18 18 W 7 11 30.15 1021 10 16 0.00 0.00
9:53 pm 21:53 Clear 50 10 10 -12.2 20 20 Calm 30.14 1021 10 16 0.00 0.00
10:53 pm 22:53 Clear 51 10.6 6 -14.4 16 16 Calm 30.14 1021 10 16 0.00 0.00
11:53 pm 23:53 Clear 53 11.7 3 -16.1 13 13 WNW 9 15 30.14 1021 10 16 0.00 0.00

Powered by AerisWeather